Vorticity
13 9 -3 11 11 11 -14 -15 -10 -9 -5 -2 -2 -4 3 4 14 7 8 7 4 15 15 10 5 4 2 -2 4 4 17 10 9 15 16 10 7 6 6 13 8 3 23 1
3 -2 8 14 5 6 8 7 7 8 13 24 12 10 6 10 10 7 8 10 13 11 16 10 12 5 5 3 5 6 19 7 3 5 12 14 13 11 9 10 12 4 12 20
7 -16 -4 14 23 15 10 4 6 -0 4 3 21 34 39 39 30 21 13 13 13 11 17 9 10 15 5 7 5 14 13 4 7 6 15 15 11 8 3 7 9 14 -2 10
24 31 12 6 0 4 13 17 22 23 25 10 3 -9 -1 2 -1 -5 1 27 22 11 19 18 12 6 14 5 4 14 11 6 6 11 16 17 14 9 11 9 15 -5 13 10
-14 -5 -3 9 12 33 -0 7 -3 -5 18 15 15 9 -14 19 -3 -14 -1 7 37 13 32 17 25 16 14 14 3 21 3 10 8 11 14 16 9 6 8 11 15 -2 4 8
3 0 3 10 13 20 6 10 9 15 8 32 11 -18 18 19 48 55 34 25 36 1 11 20 26 20 14 7 4 6 3 6 10 9 10 9 10 10 11 7 9 13 8 4
22 29 17 15 10 13 5 6 18 30 14 4 6 40 -73 -44 -64 -16 22 27 16 5 27 16 19 21 16 6 6 4 2 4 10 9 10 11 11 11 5 9 7 7 4 3
11 20 31 19 31 4 19 20 -46 13 3 6 24 13 -26 -8 -19 5 14 18 15 13 18 24 19 18 18 8 6 3 0 2 9 10 11 13 16 6 6 5 10 5 3 3
2 23 29 12 12 28 43 14 23 -16 -0 15 -2 16 18 19 49 43 19 15 29 14 0 26 16 17 13 16 10 6 1 3 4 12 10 12 11 5 3 11 6 3 2 2
9 11 28 27 17 8 -17 7 23 16 10 5 18 20 -31 -12 -41 -18 12 11 30 25 12 18 9 18 15 5 9 8 2 1 5 13 11 10 9 5 10 6 2 2 2 3
18 8 -15 -4 10 20 29 5 7 -1 -19 2 11 9 26 5 20 13 -13 -1 16 22 28 19 6 26 20 7 6 0 6 6 6 10 10 8 7 8 8 3 2 2 3 2
12 7 0 -15 14 13 8 4 15 -33 18 14 -10 0 -10 -5 -15 -6 -20 -7 7 46 22 19 17 10 19 13 5 3 3 6 8 9 10 8 7 8 6 3 2 2 2 2
19 10 18 22 31 36 12 16 3 15 -16 11 -16 -8 -5 27 20 21 11 10 7 41 28 24 -3 1 15 24 7 2 7 8 8 9 9 10 8 8 4 2 2 2 2 2
3 12 -23 -46 -47 -1 0 18 28 19 -16 13 -9 -3 -32 -19 -13 -7 -30 15 10 39 34 20 23 34 14 17 5 4 6 8 9 8 11 8 7 6 4 2 2 2 3 3
18 -1 10 -2 3 21 31 42 23 25 14 -25 1 18 25 27 26 16 21 13 48 18 26 14 4 6 17 8 8 9 8 10 10 4 13 7 7 5 3 3 3 3 4 4
9 -3 0 -11 39 13 1 22 57 27 8 26 11 2 17 11 4 -4 21 25 27 20 28 26 27 21 14 13 9 7 10 10 8 12 8 7 6 5 4 3 4 4 5 7
3 11 -0 -8 13 59 42 -1 30 26 40 24 8 27 7 4 21 26 36 -18 48 22 22 21 26 26 17 13 11 10 10 10 10 10 7 6 6 5 4 5 5 7 9 8
-12 -3 16 -11 62 18 -37 7 28 23 17 20 19 40 28 4 -3 72 29 23 32 23 15 11 10 8 7 7 7 6 9 13 12 9 6 5 5 5 6 8 10 9 7 7
0 8 4 10 -1 2 3 19 30 20 9 50 20 22 -2 0 14 18 23 11 15 15 9 9 7 6 6 8 10 13 12 10 7 6 5 5 7 9 10 10 8 6 8 8
32 34 3 -7 15 5 -30 19 2 6 -10 23 16 15 26 29 22 23 21 18 14 8 6 7 6 7 10 11 10 10 10 8 7 7 7 8 10 11 8 6 8 7 10 10
12 17 4 4 11 11 -1 15 12 19 -13 9 24 15 9 13 10 12 2 8 8 7 6 8 7 8 11 12 12 11 8 7 7 9 10 11 8 6 8 7 9 9 9 9
4 12 9 20 8 19 -0 11 12 8 14 27 21 2 8 3 -2 9 -3 12 10 6 7 9 8 9 8 9 8 7 8 8 10 10 7 6 7 8 9 8 9 11 9 7
15 -2 0 -1 -14 1 8 5 9 5 13 34 23 4 4 4 5 8 4 13 7 9 6 5 7 8 10 9 8 7 10 9 6 5 6 8 8 8 9 11 11 8 7 7
16 20 -1 12 -1 12 18 8 10 10 9 25 25 28 14 14 11 18 20 10 7 8 9 5 9 7 8 10 12 11 7 6 6 7 8 8 9 11 12 9 7 6 6 7
-1 -4 2 8 -10 34 16 8 8 10 6 9 21 16 11 11 6 10 13 14 11 10 9 7 7 11 13 10 8 6 6 8 9 8 9 10 12 10 8 7 6 7 7 7
-11 9 -10 12 -1 6 11 17 6 10 8 5 9 21 15 11 11 13 13 11 8 8 12 14 13 11 7 7 8 9 9 8 9 10 11 11 9 7 7 7 7 7 8 9
Height
3053 3054 3053 3058 3060 3062 3063 3062 3060 3060 3063 3060 3054 3045 3047 3051 3049 3049 3052 3055 3058 3062 3068 3074 3079 3084 3088 3091 3094 3097 3099 3102 3104 3105 3105 3107 3109 3110 3111 3112 3112 3113 3116 3115
3050 3047 3052 3054 3056 3057 3058 3057 3056 3057 3059 3057 3047 3027 3034 3037 3038 3041 3043 3045 3048 3054 3059 3064 3070 3074 3078 3083 3086 3090 3092 3095 3097 3098 3099 3101 3102 3104 3105 3106 3108 3110 3111 3110
3044 3046 3046 3049 3051 3052 3052 3052 3054 3054 3052 3049 3044 3017 3022 3024 3026 3030 3033 3036 3039 3042 3048 3054 3058 3063 3070 3074 3079 3083 3086 3088 3090 3091 3092 3093 3096 3098 3099 3101 3103 3105 3106 3106
3040 3041 3042 3044 3046 3050 3046 3048 3049 3050 3050 3046 3044 3022 3013 3016 3018 3022 3024 3027 3030 3034 3038 3043 3049 3053 3059 3066 3071 3075 3078 3081 3083 3084 3085 3087 3091 3093 3095 3097 3098 3100 3101 3101
3035 3036 3038 3039 3042 3044 3043 3043 3045 3045 3044 3042 3039 3040 2997 3009 3009 3014 3021 3022 3024 3025 3028 3032 3038 3044 3051 3058 3064 3068 3071 3074 3077 3078 3080 3081 3085 3087 3089 3091 3092 3095 3096 3097
3031 3033 3033 3034 3038 3038 3040 3040 3040 3041 3041 3032 3030 3034 2993 3003 3006 3008 3012 3013 3015 3017 3018 3022 3028 3034 3041 3049 3055 3061 3065 3068 3070 3072 3075 3076 3079 3081 3084 3086 3088 3090 3091 3092
3027 3026 3027 3029 3031 3034 3035 3038 3037 3035 3031 3021 3022 3022 2995 3000 3004 3007 3006 3006 3009 3010 3011 3013 3017 3024 3031 3039 3047 3054 3059 3063 3065 3067 3069 3071 3073 3077 3080 3082 3083 3085 3086 3088
3024 3021 3021 3022 3023 3025 3025 3029 3028 3023 3021 3017 3016 3004 2991 2996 2999 3001 2999 2997 2996 3000 3003 3005 3010 3015 3023 3032 3040 3046 3053 3057 3060 3062 3065 3067 3068 3072 3075 3077 3079 3081 3083 3083
3020 3018 3017 3018 3019 3022 3019 3019 3021 3021 3016 3013 3003 2991 2989 2991 2991 2992 2991 2989 2987 2989 2993 2997 3003 3009 3016 3025 3034 3041 3046 3050 3054 3057 3060 3062 3065 3068 3071 3072 3075 3077 3078 3079
3016 3015 3011 3013 3015 3014 3014 3016 3017 3015 3010 3001 2988 2987 2981 2983 2986 2985 2985 2982 2981 2982 2985 2988 2995 3001 3010 3019 3027 3034 3040 3044 3048 3051 3055 3058 3061 3064 3066 3069 3071 3073 3074 3074
3012 3014 3009 3008 3005 3006 3009 3008 3006 3005 3001 2994 2987 2975 2976 2978 2977 2977 2977 2975 2974 2974 2978 2982 2989 2995 3004 3013 3021 3028 3034 3039 3043 3046 3050 3053 3056 3060 3063 3065 3067 3068 3069 3068
3009 3009 3004 3000 2999 2998 2998 2993 2994 2991 2986 2985 2984 2960 2976 2975 2974 2973 2972 2971 2969 2967 2972 2976 2983 2991 2998 3006 3014 3022 3028 3033 3038 3042 3045 3049 3052 3056 3059 3061 3063 3063 3063 3062
3006 3005 3002 2993 2992 2991 2983 2977 2977 2979 2980 2974 2979 2956 2968 2970 2968 2967 2969 2968 2965 2962 2964 2971 2979 2985 2993 3000 3009 3016 3023 3028 3033 3037 3042 3045 3048 3051 3054 3057 3058 3058 3057 3056
3003 3000 2997 2993 2985 2983 2974 2970 2971 2973 2971 2963 2960 2956 2963 2965 2965 2964 2965 2965 2963 2959 2958 2965 2972 2979 2987 2996 3004 3012 3018 3024 3029 3034 3038 3041 3044 3047 3050 3052 3052 3052 3050 3049
2999 2992 2991 2983 2975 2971 2964 2959 2962 2961 2959 2962 2949 2954 2957 2958 2959 2960 2960 2960 2959 2954 2955 2961 2969 2977 2984 2992 3000 3007 3014 3020 3026 3030 3034 3037 3040 3043 3045 3046 3046 3045 3044 3041
2993 2988 2984 2971 2970 2963 2956 2952 2949 2952 2954 2952 2952 2942 2952 2951 2950 2952 2955 2955 2952 2950 2954 2959 2966 2973 2982 2990 2998 3005 3012 3018 3023 3026 3030 3034 3037 3039 3040 3040 3040 3039 3036 3033
2990 2988 2983 2966 2966 2957 2953 2949 2946 2944 2944 2947 2945 2945 2946 2945 2944 2947 2946 2947 2946 2949 2954 2960 2966 2974 2983 2991 2999 3005 3010 3014 3018 3023 3027 3030 3032 3034 3034 3034 3033 3031 3028 3025
2985 2985 2984 2970 2964 2956 2952 2947 2943 2942 2940 2941 2939 2942 2942 2942 2942 2941 2942 2943 2945 2952 2956 2962 2969 2976 2985 2992 2998 3003 3007 3011 3016 3019 3023 3026 3027 3028 3028 3027 3025 3023 3020 3017
2983 2985 2982 2975 2967 2959 2950 2946 2945 2943 2943 2940 2941 2941 2941 2940 2941 2944 2945 2948 2951 2957 2962 2967 2973 2980 2986 2991 2996 3000 3004 3009 3012 3016 3019 3021 3022 3022 3022 3020 3018 3016 3013 3010
2976 2978 2981 2976 2971 2964 2955 2953 2949 2947 2946 2944 2945 2944 2945 2946 2950 2952 2953 2957 2960 2962 2967 2971 2976 2981 2986 2991 2995 2999 3003 3007 3010 3012 3015 3016 3017 3016 3015 3014 3012 3009 3006 3002
2975 2975 2975 2974 2971 2962 2958 2955 2952 2952 2958 2950 2950 2950 2950 2952 2954 2955 2957 2962 2965 2968 2971 2974 2979 2983 2987 2991 2995 2998 3001 3005 3007 3010 3011 3011 3011 3010 3009 3008 3006 3002 2998 2995
2972 2972 2971 2971 2970 2963 2959 2957 2956 2956 2953 2953 2954 2954 2956 2957 2958 2959 2963 2966 2969 2972 2974 2977 2980 2984 2988 2991 2994 2998 3001 3004 3005 3006 3007 3007 3006 3005 3004 3001 2998 2995 2992 2988
2969 2969 2969 2969 2965 2961 2959 2958 2957 2955 2954 2953 2953 2956 2958 2960 2963 2965 2967 2970 2972 2975 2977 2979 2982 2985 2988 2991 2994 2997 3000 3001 3002 3003 3003 3002 3001 3000 2997 2995 2992 2989 2985 2980
2966 2967 2966 2966 2963 2960 2959 2959 2958 2957 2956 2954 2954 2956 2959 2962 2964 2965 2968 2971 2974 2976 2978 2981 2983 2986 2989 2992 2994 2996 2998 2999 2999 2999 2998 2997 2996 2994 2992 2989 2986 2982 2977 2972
2965 2965 2965 2964 2963 2960 2959 2960 2959 2959 2959 2958 2957 2958 2960 2962 2965 2967 2969 2971 2974 2976 2978 2981 2984 2986 2989 2992 2993 2994 2995 2995 2995 2995 2994 2993 2991 2989 2986 2983 2980 2975 2970 2964
2961 2962 2963 2962 2962 2961 2960 2960 2961 2960 2960 2960 2960 2961 2962 2963 2966 2968 2970 2972 2974 2976 2979 2982 2984 2987 2989 2990 2991 2992 2992 2993 2992 2991 2990 2988 2986 2983 2981 2978 2973 2968 2962 2956